WZZ67 LHBP-LIMJ

Flight info

Callsign WZZ67
Flight time N/A
Altitude 38000
Route GILEP DCT ZOLKU DCT SUBES DCT SUNIS DCT RADLY DCT RIFEN/N0444F370 DCT AKADO DCT NISIL DCT BEROK/N0445F380 DCT MIVKI/N0351F180 M730 KALMO
Aircraft A321/M-SDE1E2E3FGIJ1J4RWXY/LB1

Departure

Time N/A
Airport Budapest Liszt Ferenc International Airport (LHBP)

Arrival

Time 2026-04-29 19:41
Airport Genoa Cristoforo Colombo Airport (LIMJ)
Time Latitude Longitude Altitude Speed Heading
2026-04-29 19:17 44.57810 10.77566 31487 ft 408 kts 221°
2026-04-29 19:17 44.55540 10.75214 31020 ft 404 kts 221°
2026-04-29 19:17 44.53288 10.72878 30557 ft 401 kts 221°
2026-04-29 19:17 44.51055 10.70561 30076 ft 398 kts 221°
2026-04-29 19:18 44.48838 10.68268 29582 ft 394 kts 221°
2026-04-29 19:18 44.47381 10.66766 29305 ft 391 kts 221°
2026-04-29 19:18 44.44473 10.63775 28727 ft 385 kts 221°
2026-04-29 19:18 44.42323 10.61567 28300 ft 382 kts 221°
2026-04-29 19:19 44.40192 10.59377 27894 ft 379 kts 221°
2026-04-29 19:19 44.38076 10.57203 27474 ft 377 kts 220°
2026-04-29 19:19 44.35975 10.55043 27082 ft 373 kts 220°
2026-04-29 19:19 44.33888 10.52900 26683 ft 371 kts 220°
2026-04-29 19:20 44.31821 10.50781 26303 ft 367 kts 220°
2026-04-29 19:20 44.29768 10.48677 25912 ft 364 kts 220°
2026-04-29 19:20 44.27736 10.46596 25528 ft 361 kts 220°
2026-04-29 19:20 44.25742 10.44558 25140 ft 358 kts 220°
2026-04-29 19:21 44.23739 10.42513 24737 ft 356 kts 220°
2026-04-29 19:21 44.21754 10.40479 24341 ft 352 kts 222°
2026-04-29 19:21 44.20035 10.38110 23945 ft 344 kts 236°
2026-04-29 19:21 44.18829 10.35281 23536 ft 337 kts 250°
2026-04-29 19:22 44.18170 10.32190 23108 ft 330 kts 263°
2026-04-29 19:22 44.18063 10.29030 22684 ft 324 kts 276°
2026-04-29 19:22 44.18480 10.25976 22285 ft 319 kts 287°
2026-04-29 19:22 44.19105 10.23024 21885 ft 317 kts 287°
2026-04-29 19:23 44.19720 10.20086 21482 ft 315 kts 287°
2026-04-29 19:23 44.20329 10.17163 21090 ft 314 kts 287°
2026-04-29 19:23 44.20933 10.14248 20697 ft 312 kts 287°
2026-04-29 19:23 44.21532 10.11346 20298 ft 311 kts 287°
2026-04-29 19:24 44.22131 10.08452 19880 ft 311 kts 287°
2026-04-29 19:24 44.22729 10.05561 19469 ft 310 kts 287°
2026-04-29 19:24 44.23325 10.02677 19065 ft 309 kts 287°
2026-04-29 19:24 44.23920 9.99799 18677 ft 309 kts 287°
2026-04-29 19:25 44.24516 9.96918 18273 ft 308 kts 287°
2026-04-29 19:25 44.25105 9.94047 17836 ft 307 kts 287°
2026-04-29 19:25 44.25680 9.91231 17448 ft 305 kts 287°
2026-04-29 19:25 44.26259 9.88397 17054 ft 303 kts 287°
2026-04-29 19:26 44.26834 9.85579 16670 ft 301 kts 287°
2026-04-29 19:26 44.27408 9.82782 16272 ft 300 kts 287°
2026-04-29 19:26 44.27980 9.79992 15892 ft 298 kts 287°
2026-04-29 19:26 44.28549 9.77214 15511 ft 297 kts 287°
2026-04-29 19:27 44.29116 9.74443 15131 ft 297 kts 287°
2026-04-29 19:27 44.29684 9.71675 14748 ft 296 kts 287°
2026-04-29 19:27 44.30248 9.68908 14376 ft 296 kts 287°
2026-04-29 19:27 44.30809 9.66144 13995 ft 295 kts 287°
2026-04-29 19:28 44.31365 9.63387 13592 ft 295 kts 287°
2026-04-29 19:28 44.31919 9.60644 13241 ft 292 kts 287°
2026-04-29 19:28 44.32287 9.58821 13140 ft 285 kts 287°
2026-04-29 19:28 44.32841 9.56213 12994 ft 276 kts 288°
2026-04-29 19:29 44.33368 9.53663 12706 ft 272 kts 281°
2026-04-29 19:29 44.33386 9.51038 12356 ft 272 kts 260°
2026-04-29 19:29 44.32710 9.48584 11984 ft 273 kts 238°
2026-04-29 19:29 44.31427 9.46640 11646 ft 274 kts 218°
2026-04-29 19:30 44.29897 9.45065 11397 ft 271 kts 212°
2026-04-29 19:30 44.28165 9.44206 11267 ft 262 kts 186°
2026-04-29 19:30 44.26391 9.44441 11128 ft 254 kts 161°
2026-04-29 19:30 44.24871 9.45624 10885 ft 250 kts 142°
2026-04-29 19:31 44.23487 9.47091 10581 ft 249 kts 143°
2026-04-29 19:31 44.21939 9.48088 10273 ft 247 kts 172°
2026-04-29 19:31 44.20254 9.47728 9773 ft 251 kts 209°
2026-04-29 19:31 44.18970 9.46075 9254 ft 256 kts 233°
2026-04-29 19:32 44.17955 9.44036 8737 ft 263 kts 245°
2026-04-29 19:32 44.17510 9.41559 8228 ft 269 kts 270°
2026-04-29 19:32 44.17905 9.39017 7717 ft 273 kts 298°
2026-04-29 19:32 44.19078 9.36946 7227 ft 275 kts 317°
2026-04-29 19:33 44.20470 9.35092 6718 ft 276 kts 317°
2026-04-29 19:33 44.21830 9.33278 6228 ft 265 kts 317°
2026-04-29 19:33 44.23112 9.31561 6005 ft 244 kts 317°
2026-04-29 19:33 44.24304 9.29960 6004 ft 233 kts 316°
2026-04-29 19:34 44.25465 9.28402 6004 ft 231 kts 316°
2026-04-29 19:34 44.26619 9.26852 6005 ft 230 kts 316°
2026-04-29 19:34 44.27764 9.25309 6021 ft 223 kts 316°
2026-04-29 19:34 44.28904 9.23924 6005 ft 214 kts 324°
2026-04-29 19:35 44.30095 9.22677 6003 ft 213 kts 323°
2026-04-29 19:35 44.31277 9.21427 6003 ft 213 kts 323°
2026-04-29 19:35 44.32464 9.20168 5637 ft 215 kts 323°
2026-04-29 19:35 44.33522 9.18702 5104 ft 213 kts 305°
2026-04-29 19:36 44.34151 9.16866 4784 ft 210 kts 287°
2026-04-29 19:36 44.34585 9.14931 4467 ft 208 kts 289°
2026-04-29 19:36 44.35018 9.13010 4171 ft 207 kts 288°
2026-04-29 19:36 44.35439 9.11095 3880 ft 206 kts 288°
2026-04-29 19:37 44.35856 9.09179 3595 ft 206 kts 288°
2026-04-29 19:37 44.36131 9.07912 3407 ft 205 kts 288°
2026-04-29 19:37 44.36679 9.05386 3028 ft 202 kts 288°
2026-04-29 19:37 44.37084 9.03516 2747 ft 201 kts 288°
2026-04-29 19:38 44.37488 9.01653 2467 ft 200 kts 288°
2026-04-29 19:38 44.37882 8.99827 2209 ft 192 kts 288°
2026-04-29 19:38 44.38256 8.98101 1936 ft 177 kts 287°
2026-04-29 19:38 44.38590 8.96550 1711 ft 156 kts 287°
2026-04-29 19:39 44.38940 8.95179 1468 ft 145 kts 292°
2026-04-29 19:39 44.39291 8.93901 1213 ft 141 kts 288°
2026-04-29 19:39 44.39566 8.92601 1014 ft 139 kts 285°
2026-04-29 19:39 44.39813 8.91303 838 ft 138 kts 284°
2026-04-29 19:40 44.40055 8.90007 668 ft 137 kts 286°
2026-04-29 19:40 44.40322 8.88727 489 ft 137 kts 287°
2026-04-29 19:40 44.40569 8.87443 337 ft 137 kts 285°
2026-04-29 19:40 44.40812 8.86157 127 ft 137 kts 286°
2026-04-29 19:41 44.41051 8.84888 21 ft 126 kts 287°
2026-04-29 19:41 44.41254 8.83895 20 ft 83 kts 285°
2026-04-29 19:41 44.41358 8.83352 22 ft 36 kts 285°
2026-04-29 19:41 44.41424 8.83018 22 ft 35 kts 285°
2026-04-29 19:42 44.41487 8.82698 21 ft 32 kts 285°
2026-04-29 19:42 44.41523 8.82522 18 ft 22 kts 286°
2026-04-29 19:42 44.41614 8.82503 19 ft 11 kts 14°
2026-04-29 19:42 44.41660 8.82574 22 ft 11 kts 85°
2026-04-29 19:43 44.41640 8.82689 21 ft 13 kts 105°
2026-04-29 19:43 44.41614 8.82823 21 ft 15 kts 105°
2026-04-29 19:43 44.41584 8.82977 22 ft 17 kts 105°
2026-04-29 19:43 44.41551 8.83148 21 ft 19 kts 104°
2026-04-29 19:44 44.41518 8.83320 20 ft 19 kts 106°
2026-04-29 19:44 44.41479 8.83512 20 ft 22 kts 105°
2026-04-29 19:44 44.41438 8.83723 21 ft 24 kts 105°
2026-04-29 19:44 44.41394 8.83952 21 ft 25 kts 105°
2026-04-29 19:45 44.41355 8.84146 22 ft 21 kts 105°
2026-04-29 19:45 44.41317 8.84340 20 ft 18 kts 105°
2026-04-29 19:45 44.41283 8.84514 20 ft 20 kts 105°
2026-04-29 19:45 44.41246 8.84708 20 ft 22 kts 105°
2026-04-29 19:46 44.41217 8.84863 20 ft 14 kts 100°
2026-04-29 19:46 44.41262 8.84926 20 ft 11 kts 17°
2026-04-29 19:46 44.41327 8.84955 20 ft 9 kts 26°
2026-04-29 19:46 44.41355 8.85013 21 ft 7 kts 29°
2026-04-29 19:47 44.41405 8.85034 20 ft 3 kts 15°
2026-04-29 19:47 44.41413 8.85037 20 ft 0 kts 15°